DECAYED
Showing default

LEMUR 2 JINDRA, 46909 (Decayed)

Orbit data source: Space-Track

LEMUR 2 JINDRA, 46909 was a payload satellite owned by Spire (US) in LEO that was launched on Sat, 07 Nov 2020 UTC via a PSLV-DL launch vehicle from the Sirharikota (SRI). Payloads include a variety of satellites, spacecraft, and rockets equipped with specific instruments for various scientific and technological missions. These include communications satellites like Starlink; space stations such as the ISS; scientific satellites like the Hubble; Earth observation satellites from companies like Planet Labs, Umbra, and HawkEye 360; GPS; miniature CubeSats for education and research; and military/defense satellites.

Not visible in the next 10 days
LEMUR 2 JINDRA details
Identifier
46909, 2020-081E
Orbit
Decayed
Last TLE update4 months ago
Origin
Flag of USSpire (US)
ManufacturerSpire/Glasgow
MissionDecayed Commercial Com/MetRO
Bus & MotorCUBESAT 3U, Unknown motor
Mass4.6 kg wet, 4.6 kg dry
Launch date (UTC)
2020-11-07 (4 years ago)
Launch vehicle
PSLV-DL
Launch site
Sirharikota (SRI)
Object type
Payload
Rocket body
Debris
Shape & HBRBox + 2 Pan, 0.7 m
Radar Cross Section0.124 m², Small (<0.1 m²)

Expand to show TLE details & history

TLE from 4 months ago
0 LEMUR 2 JINDRA
1 46909U 20081E   24243.56434529  .01468094  11570-2  29119-2 0  9994
2 46909  36.8843 340.2867 0013719  50.5912 309.6073 15.98992038210785
Epoch: 2024-08-30T13:32Z
Definitive object data (Epoch: 2024-08-30T13:32:39.433Z)
Latitude-0.00001°
Longitude157.88684°
Altitude270.479 km
Speed7.751 km/s
True Right ascension22h 41m 08s
True Declination0° 00' 00"
Sunlit
Object was in full shadow at TLE epoch
Visualization observer readout
Observer readout values are unavailable because the object's trajectory could not be propagated. This is usually caused when the trajectory data is faulty or the object's orbit has decayed.
Visualization observer readout
Observer readout values are unavailable because the object's trajectory could not be propagated. This is usually caused when the trajectory data is faulty or the object's orbit has decayed.
Orbital elements
Apogee altitude289.396 km
Perigee altitude271.126 km
Semi-major axis6,658.398 km
Eccentricity0.0013719
Inclination36.8843°
RAAN340.2867°
Arg. of periapsis50.5912°
True anomaly309.48605°
Mean anomaly309.6073°
Eccentric anomaly309.54669°
Mean motion3.99474 °/min
BSTAR0.0029119
Orbital period90.12 mins
Loading maneuver chart data...
Loading historical data...
Loading historical data...
Loading historical data...
Loading historical data...
Loading historical data...
Loading historical data...
Loading historical data...

LEMUR 2 JINDRA Visibility forecast

Observer location: undefined°, undefined

This satellite is decayed
Span
Click to sort rows by Start time (UTC) header in descending order
Start Az.
Max El. time (UTC)
Max El. Az.
Max El.
End time (UTC)
End Az.
|